This is the latest recevied weather packets stored in our database for station/object EA1CZ-10. If no packets are shown the sender has not sent any weather packets the latest 10 day(s).
| Time | Temp. | Humidity | Pressure | Rain* | Wind** | Luminosity | Snow |
|---|---|---|---|---|---|---|---|
| 1788563400 | 22.78° C | 37% | 1039.8 hPa | - | - | - | - |
| 1788561600 | 21.67° C | 38% | 1039.8 hPa | - | - | - | - |
| 1788559800 | 22.22° C | 37% | 1039.7 hPa | - | - | - | - |
| 1788558000 | 22.78° C | 37% | 1040 hPa | - | - | - | - |
| 1788556200 | 22.78° C | 37% | 1040.3 hPa | - | - | - | - |
| 1788554400 | 22.78° C | 37% | 1040.3 hPa | - | - | - | - |
| 1788552600 | 22.78° C | 37% | 1040 hPa | - | - | - | - |
| 1788550800 | 22.78° C | 37% | 1039.6 hPa | - | - | - | - |
| 1788548999 | 21.67° C | 37% | 1039.2 hPa | - | - | - | - |
| 1788547199 | 23.33° C | 34% | 1038.6 hPa | - | - | - | - |
| 1788545399 | 26.11° C | 32% | 1038.5 hPa | - | - | - | - |
| 1788543599 | 27.22° C | 32% | 1038.7 hPa | - | - | - | - |
| 1788541799 | 28.89° C | 31% | 1038.8 hPa | - | - | - | - |
| 1788538234 | 28.33° C | 30% | 1038.9 hPa | - | - | - | - |
| 1788536408 | 32.22° C | 29% | 1039.2 hPa | - | - | - | - |
| 1788534607 | 31.11° C | 30% | 1039 hPa | - | - | - | - |
| 1788532807 | 32.78° C | 29% | 1038.8 hPa | - | - | - | - |
| 1788531007 | 32.22° C | 30% | 1039.2 hPa | - | - | - | - |
| 1788529207 | 30.56° C | 31% | 1039.2 hPa | - | - | - | - |
| 1788527407 | 31.11° C | 31% | 1039.2 hPa | - | - | - | - |
| 1788525604 | 31.11° C | 31% | 1039.1 hPa | - | - | - | - |
| 1788523804 | 28.89° C | 32% | 1039.3 hPa | - | - | - | - |
| 1788522004 | 28.89° C | 32% | 1039.4 hPa | - | - | - | - |
| 1788520203 | 29.44° C | 33% | 1039.4 hPa | - | - | - | - |
| 1788518403 | 28.33° C | 33% | 1039.6 hPa | - | - | - | - |
* Rain since midnight (hover to see other rain measurements)
** Current wind speed in m/s (hover to see current wind gust speed)